Theta_e
302 303 303 303 302 302 301 300 299 298 298 299 298 298 298 298 298 298 298 298 298 298 298 299 300 300 299 299 298 298 299 299 299 298 298 298 298 298 298 297 297 297 297 297 297 297 297 297 297 297 296 296 296 296 296 296 296 296 296 295 294 294 294 294 293 293 292 292 292
302 303 302 301 300 301 301 299 298 298 298 299 299 299 298 298 298 298 298 298 299 300 300 300 300 299 299 298 298 298 299 298 299 298 298 298 298 298 297 297 297 297 297 297 297 297 297 297 298 297 296 296 296 295 295 295 296 295 295 294 294 294 293 293 293 293 292 292 292
303 302 302 301 301 301 300 299 298 298 298 299 299 299 298 298 298 298 298 299 300 301 301 300 299 299 299 299 299 299 299 299 299 298 298 298 297 297 297 297 297 297 297 297 297 297 297 298 298 297 296 296 296 295 294 294 294 294 294 293 293 293 292 292 292 292 292 291 291
303 302 301 301 302 301 300 298 298 298 298 298 298 298 298 298 299 299 299 300 301 301 300 299 299 298 298 299 299 299 298 298 298 298 298 297 297 297 297 296 297 296 297 297 297 297 298 298 298 298 297 297 296 295 294 293 293 293 293 293 292 292 292 291 291 291 290 290 290
302 302 302 302 301 301 300 299 298 298 298 297 297 297 298 299 299 299 300 299 300 300 300 299 299 298 298 298 298 298 298 298 297 297 298 297 296 296 296 297 297 297 296 297 297 297 297 298 298 298 298 297 296 295 294 293 292 292 292 292 292 291 291 290 290 290 289 289 289
302 302 302 302 301 301 300 299 299 298 298 297 298 298 299 299 299 299 299 299 299 299 299 298 298 297 297 298 298 298 297 297 297 297 297 297 296 296 296 296 296 296 296 296 296 297 297 298 297 297 297 297 295 295 294 293 292 292 291 291 290 290 290 290 289 289 289 288 288
302 302 302 301 300 300 299 298 298 298 298 298 299 299 298 299 299 299 299 299 298 298 297 296 297 296 297 297 297 297 297 297 297 297 297 296 296 296 296 296 296 296 296 296 296 297 297 298 297 296 295 294 294 293 293 292 292 292 291 290 290 290 290 290 289 289 288 288 288
302 301 301 300 300 299 299 297 297 297 298 299 298 298 299 299 299 298 298 298 297 297 296 296 297 297 297 297 296 296 296 296 296 296 296 296 296 296 295 295 295 295 295 296 296 297 297 298 297 296 295 294 293 292 292 292 292 292 291 290 289 289 289 289 289 288 288 288 288
301 301 301 301 300 299 299 298 298 298 299 299 299 299 299 299 299 298 298 297 296 296 297 297 297 297 297 297 296 296 295 294 295 295 295 296 295 295 295 295 294 294 294 295 296 296 297 297 296 296 295 294 293 292 291 291 292 292 291 290 289 288 288 288 288 288 287 288 288
301 300 300 300 300 299 299 298 299 299 299 299 299 299 298 297 298 298 298 297 296 297 297 297 297 297 297 297 296 295 295 294 294 294 295 295 295 295 294 294 294 294 294 294 295 296 296 296 296 295 294 294 293 292 291 290 291 291 291 290 289 288 288 287 287 287 287 287 288
301 300 299 299 299 299 299 299 299 299 299 299 299 299 298 297 298 298 298 297 297 297 297 297 297 297 296 296 296 295 295 294 294 294 294 294 294 294 294 294 294 294 294 293 294 295 295 295 294 294 293 293 292 291 290 290 291 291 291 290 289 289 288 287 287 287 286 287 287
301 300 299 299 299 299 299 299 299 299 299 299 299 298 298 298 298 298 297 297 297 297 297 297 297 297 296 296 296 295 295 294 294 294 294 294 294 294 294 294 294 294 293 293 293 293 294 294 293 293 292 292 292 291 290 290 290 290 290 289 289 289 288 288 287 286 286 286 286
301 300 299 299 299 298 299 299 298 298 298 298 298 298 298 298 298 298 297 298 297 297 297 297 297 297 297 296 296 295 295 294 294 294 294 294 294 293 293 293 293 293 293 293 293 293 293 293 293 292 292 291 291 291 290 290 290 290 290 289 288 288 288 288 287 286 286 285 286
301 299 299 299 298 298 298 298 298 298 298 298 298 298 298 298 298 297 298 298 297 297 297 297 297 297 297 296 296 295 294 294 294 294 294 293 293 293 293 293 293 293 293 293 293 293 293 293 293 292 292 291 291 290 290 290 290 290 290 289 288 288 288 288 287 286 285 285 285
299 299 298 298 298 298 298 298 297 298 298 298 298 298 298 297 297 297 297 298 297 297 296 296 296 296 296 296 295 294 294 294 294 294 294 293 293 293 293 292 292 292 292 292 292 293 293 293 293 292 292 291 291 290 289 289 289 290 290 289 289 288 288 288 287 286 285 286 286
298 298 297 297 297 297 297 297 297 297 297 298 298 298 297 297 297 297 297 297 296 296 296 296 295 296 295 295 295 294 294 294 294 294 293 293 293 292 292 292 291 292 292 292 292 292 292 293 293 293 292 291 291 290 289 289 289 289 290 290 289 289 289 288 287 286 286 286 286
297 297 296 296 297 297 296 296 297 297 297 297 297 297 297 296 296 296 296 296 296 296 295 295 295 295 294 294 294 294 294 294 294 294 294 293 292 292 292 292 292 292 292 291 291 291 291 292 292 292 292 292 292 291 290 289 289 289 289 290 290 289 289 288 287 286 286 286 286
296 296 296 296 296 296 296 296 296 296 296 296 296 296 296 296 296 295 295 295 296 295 295 295 295 295 294 294 294 293 293 293 294 294 294 294 293 292 292 292 292 292 292 292 291 291 291 291 291 292 292 292 292 291 291 290 289 289 289 289 289 289 288 288 287 287 286 286 286
295 295 295 295 296 296 296 296 296 296 296 296 296 296 296 295 295 295 295 295 295 295 295 295 295 294 294 294 293 293 293 294 294 294 294 293 293 292 292 292 292 292 292 292 292 292 292 291 291 291 291 291 291 291 291 290 290 289 289 289 288 288 288 287 287 287 287 286 286
295 295 295 295 296 296 296 296 296 296 296 297 296 296 296 295 295 295 294 295 295 296 296 295 294 294 294 293 293 293 293 294 295 294 293 293 293 293 293 293 292 292 292 292 292 292 292 291 291 291 290 290 291 290 290 290 289 289 289 288 288 287 287 287 287 286 286 286 286
294 295 295 295 296 296 296 296 297 297 296 296 296 296 296 296 295 295 295 295 295 296 295 295 294 293 293 293 293 293 294 294 294 293 292 292 293 293 293 293 293 292 291 291 292 292 292 291 291 291 290 290 290 290 290 289 289 289 288 288 287 287 286 286 286 286 286 285 285
294 294 295 295 295 296 296 296 296 296 296 295 295 295 295 295 295 295 295 295 295 295 295 295 294 293 293 293 293 294 294 294 294 293 292 293 293 293 293 293 293 292 291 291 291 291 291 291 291 291 291 290 290 290 289 289 289 288 288 287 287 286 286 285 285 285 285 285 285
295 295 295 295 296 296 296 296 296 296 295 295 295 295 295 295 295 295 295 295 295 294 294 294 294 294 294 294 294 294 294 293 293 292 292 293 293 293 293 293 292 292 291 291 291 291 291 291 291 290 290 290 290 289 289 289 289 288 288 287 286 286 285 284 284 284 284 284 284
296 296 295 296 297 297 297 297 297 296 295 294 295 295 295 294 294 294 294 294 294 294 294 294 294 294 295 295 295 294 293 292 291 291 292 292 292 292 292 292 292 292 292 292 292 291 291 291 291 290 290 290 290 290 290 289 289 288 288 287 287 286 285 284 284 283 283 283 283
296 296 296 297 297 297 297 297 297 296 295 294 294 294 294 294 294 294 294 294 294 294 294 294 294 295 295 295 295 294 294 293 292 291 291 291 291 291 291 291 291 292 292 292 291 290 290 290 290 290 290 290 290 290 290 289 289 289 288 288 287 286 286 285 284 283 283 283 283
296 296 296 297 297 297 297 297 297 296 296 295 295 294 294 294 294 294 294 294 294 293 293 293 294 294 294 295 294 294 293 293 292 292 292 291 291 291 291 291 291 292 292 292 290 289 289 289 289 289 290 291 290 290 289 289 288 288 288 288 287 287 286 286 285 284 283 283 283
296 296 296 296 297 296 296 296 297 296 295 295 294 294 294 294 294 294 294 294 293 293 293 293 294 294 294 294 293 293 292 293 293 292 292 292 291 291 291 291 291 292 292 291 289 289 288 289 289 289 289 291 291 290 290 289 288 288 287 287 287 287 287 287 286 285 284 284 283
296 296 296 296 296 296 296 296 296 296 295 295 294 294 294 294 294 294 294 293 292 292 293 294 294 294 294 294 293 292 292 292 292 292 292 292 292 292 291 292 292 292 291 290 289 289 289 289 289 289 289 289 290 290 290 290 288 287 286 286 287 287 287 287 287 286 286 284 283
296 296 296 296 296 296 296 296 296 296 296 295 295 295 295 295 295 294 293 292 292 293 294 294 294 294 293 293 292 292 292 292 292 292 292 292 292 292 292 292 292 291 290 289 289 289 289 289 289 289 289 288 290 290 290 289 288 287 286 286 286 286 286 287 287 287 286 285 284
296 296 296 296 296 296 296 296 296 297 296 296 296 295 295 295 294 293 292 292 293 293 294 295 294 293 293 292 292 292 292 292 292 292 292 291 291 292 292 292 292 292 291 289 289 289 290 290 289 289 288 288 289 290 290 289 288 287 286 285 286 286 286 287 287 286 286 285 285
296 296 296 296 296 296 296 296 297 297 297 297 296 296 295 294 293 293 292 293 294 294 294 295 294 293 293 293 292 292 292 292 292 292 291 291 291 291 292 292 292 292 291 289 289 289 290 290 289 289 289 288 288 289 289 288 287 287 286 286 286 286 286 286 286 286 286 285 284
296 296 296 296 296 296 296 296 297 297 298 297 296 295 294 293 293 293 293 294 294 294 294 294 294 293 293 292 292 292 292 292 292 291 291 291 291 292 292 292 293 292 291 289 289 289 289 290 290 289 289 288 288 289 289 288 287 286 286 286 287 287 286 286 286 286 285 285 285
296 296 296 296 296 296 296 297 297 298 297 296 295 294 293 293 293 293 294 294 294 294 294 294 294 293 292 292 292 292 292 292 292 291 291 291 292 292 292 293 293 292 291 289 289 289 289 289 289 289 289 288 289 289 289 288 286 286 286 287 287 287 286 286 286 285 285 285 284
296 296 296 296 296 296 297 297 297 297 296 295 294 294 293 293 293 293 293 293 294 294 294 294 293 293 293 293 292 292 292 291 292 292 292 292 292 292 292 293 293 292 290 289 289 288 289 289 289 289 289 288 289 289 289 287 286 286 286 287 287 286 285 285 285 285 285 285 284
295 295 296 296 296 296 297 297 296 295 295 294 293 293 293 293 293 293 293 293 294 294 294 294 294 293 293 293 293 293 292 292 293 293 293 293 293 292 292 292 293 292 290 289 289 289 288 289 289 289 289 288 290 290 289 288 287 286 287 287 287 286 285 284 284 284 284 284 284
295 295 296 296 297 297 297 296 295 294 294 293 293 293 293 293 293 294 294 293 293 294 294 294 293 293 292 292 292 292 292 293 293 293 293 293 292 292 292 293 293 292 290 289 288 288 288 288 288 288 288 289 291 291 290 288 287 287 287 287 286 286 284 283 283 283 283 283 283
295 296 296 297 297 296 295 295 294 294 293 293 293 293 293 293 294 294 294 293 293 293 293 293 293 292 292 292 292 293 293 294 294 293 293 292 292 292 292 293 293 292 290 289 288 288 288 288 288 288 288 290 291 291 290 288 288 287 287 287 286 286 285 284 283 282 282 282 282
295 296 297 297 296 295 295 294 294 294 293 293 293 293 293 294 294 294 293 292 293 293 293 293 293 292 293 293 293 293 294 294 294 293 293 292 292 292 292 292 293 292 291 289 289 288 288 288 288 288 289 290 291 291 289 288 287 287 287 286 286 286 285 284 284 283 282 282 281
296 296 296 296 295 294 294 294 294 294 294 294 294 294 294 294 294 294 293 293 294 294 293 293 293 293 293 293 294 294 294 293 293 292 292 292 292 292 291 292 292 292 292 290 289 288 288 288 288 288 288 289 291 290 289 288 287 287 286 286 286 286 285 285 284 283 282 282 281
296 296 296 295 295 294 294 294 294 294 295 295 295 294 294 295 294 294 293 293 294 294 293 293 293 294 294 293 293 294 294 293 293 292 291 291 291 291 290 291 292 292 291 290 289 289 288 288 288 288 288 289 291 290 289 288 287 286 286 286 286 286 285 285 284 283 283 282 281
296 296 295 295 295 295 295 294 294 295 295 295 295 295 294 294 293 293 293 293 293 294 294 294 294 294 293 291 292 293 293 292 292 291 291 290 290 289 290 291 291 292 291 291 290 289 288 288 288 288 288 289 291 290 289 288 287 286 286 286 286 286 285 285 284 283 283 282 282
Wind_Speed
11 11 10 10 9 9 8 7 8 8 9 10 11 11 10 10 9 8 8 7 7 7 6 6 6 6 8 10 11 11 10 10 9 9 8 9 8 8 8 8 8 8 8 8 8 7 6 6 5 4 3 3 4 4 4 4 5 5 5 6 5 6 6 7 7 7 7 6 5
13 12 11 10 9 9 8 7 8 9 9 9 10 10 10 9 8 8 7 7 7 6 6 5 5 7 9 11 11 11 11 11 10 10 9 9 9 9 8 7 7 8 8 8 8 7 6 6 5 4 3 3 4 4 4 4 5 5 6 7 6 5 5 6 6 7 7 6 5
13 13 12 11 11 10 9 8 9 11 11 10 8 8 8 8 7 7 7 7 7 6 5 5 6 8 10 11 10 10 11 11 11 10 9 9 9 8 8 7 7 7 7 7 7 6 6 6 5 4 4 4 4 5 5 4 5 5 6 7 5 4 4 4 5 5 5 4 5
14 13 13 13 14 14 12 10 11 13 12 9 8 7 7 7 7 7 7 8 7 6 6 6 7 8 9 10 10 10 10 11 11 11 10 9 9 8 8 8 8 7 7 7 7 7 6 6 4 4 4 5 5 5 5 5 5 5 5 5 4 4 4 4 4 4 4 4 4
14 14 13 13 15 15 13 11 13 12 11 7 7 7 7 7 7 7 7 7 6 6 7 8 8 8 9 10 10 11 10 11 10 10 10 9 9 8 8 8 7 7 6 6 6 7 7 6 4 3 4 5 5 5 5 6 6 5 4 3 4 4 4 4 4 4 3 3 3
15 14 14 13 14 13 11 10 12 12 10 8 9 9 9 8 8 8 7 7 6 7 8 9 9 9 9 10 11 10 10 10 10 10 10 10 9 8 8 7 7 6 6 6 6 7 7 6 4 3 3 3 4 5 6 7 6 6 5 4 4 4 4 4 4 4 4 4 4
15 15 14 13 14 12 11 10 11 11 11 10 12 13 12 10 10 10 9 7 7 8 8 8 9 10 10 11 10 10 10 9 9 10 10 10 9 8 8 7 6 6 6 6 7 7 6 6 4 4 4 3 3 5 6 7 6 6 6 5 4 4 4 4 4 4 4 6 6
14 15 15 14 14 13 12 12 11 11 11 11 13 14 14 12 12 11 10 8 8 8 8 8 10 11 12 12 11 11 10 10 10 10 10 10 10 9 8 7 7 6 6 6 7 7 6 5 4 4 4 4 4 5 6 7 7 7 7 6 5 4 4 4 4 4 5 6 6
13 13 14 13 13 13 13 13 13 13 13 13 13 14 13 13 13 12 11 9 9 9 9 9 11 13 13 13 12 11 11 10 10 10 10 10 10 9 8 7 7 6 6 6 7 7 7 5 4 4 5 5 5 5 6 7 8 8 7 6 6 5 4 4 4 5 5 6 6
13 13 13 12 13 13 13 13 14 14 14 14 14 14 13 12 13 12 11 9 10 10 10 10 12 13 13 13 12 11 10 10 10 11 11 10 10 10 9 8 7 7 6 6 6 7 7 5 5 5 5 5 6 7 7 8 8 8 7 5 6 6 6 5 5 5 5 5 6
14 14 13 12 13 14 13 13 13 13 14 14 14 14 13 13 12 12 11 10 10 11 12 12 13 13 12 11 11 11 10 10 10 10 11 11 10 10 9 8 8 8 7 7 6 6 6 5 6 6 7 6 7 7 8 9 9 9 8 6 6 7 8 7 7 6 5 5 6
15 14 14 13 14 14 14 14 13 13 13 14 14 14 13 12 12 12 11 11 12 12 12 12 12 12 11 10 10 10 10 10 10 11 11 11 11 10 10 9 9 9 8 8 7 6 6 6 7 8 8 7 6 6 8 9 9 9 8 7 7 8 8 8 8 6 5 5 5
15 14 14 14 14 15 14 14 12 12 13 14 14 13 12 11 12 12 12 12 12 11 10 10 11 11 10 9 9 9 9 10 10 10 10 11 10 10 9 9 9 9 8 8 7 7 7 7 8 9 9 9 7 7 8 10 9 9 9 9 9 9 9 9 8 7 6 6 6
14 14 14 14 15 14 14 13 12 11 12 13 13 12 11 11 11 11 11 11 11 10 9 9 9 8 9 9 10 10 10 10 10 11 11 10 10 10 9 9 9 8 8 7 7 8 8 8 9 9 10 10 9 9 9 10 10 10 10 10 10 10 10 9 9 8 7 7 7
13 14 14 14 15 14 13 13 11 11 12 13 12 11 11 10 10 10 10 11 11 10 9 9 8 8 9 10 10 10 10 10 11 11 11 11 10 10 9 9 9 8 8 7 7 8 8 9 9 9 10 10 10 10 10 10 10 10 10 10 11 11 10 10 9 8 8 8 7
13 14 14 15 15 14 13 13 11 11 12 12 12 11 11 10 10 10 10 11 10 10 10 10 10 9 9 10 11 11 11 11 11 11 11 11 10 10 10 9 9 9 8 8 8 8 8 8 8 9 9 10 10 10 10 11 10 10 10 11 11 11 10 10 9 9 9 8 8
14 14 14 15 15 15 14 13 11 11 12 12 12 12 11 10 10 10 11 12 11 11 12 12 11 10 10 10 10 10 10 10 11 11 11 11 11 10 10 10 10 9 9 9 9 9 8 8 8 8 9 9 10 10 11 11 11 11 11 11 11 10 10 10 10 10 9 9 9
14 14 15 15 16 16 15 14 12 12 12 13 12 12 11 11 11 11 11 12 12 13 14 14 12 11 11 11 10 9 9 10 10 10 10 11 11 11 10 10 10 10 10 10 10 10 10 9 8 8 8 9 9 10 10 11 11 11 11 11 11 10 10 10 10 10 9 9 9
14 14 15 15 15 15 15 14 13 13 13 13 12 12 12 12 13 12 12 12 13 14 14 14 12 11 11 11 10 10 9 10 11 11 10 10 10 10 11 11 10 10 10 10 10 10 10 10 9 9 9 9 9 9 9 10 10 11 11 11 11 10 10 10 10 9 9 9 8
14 14 15 15 15 14 14 14 13 13 13 13 13 14 14 14 14 13 13 13 13 13 13 13 12 11 11 12 11 11 10 9 10 10 10 10 10 10 11 11 11 10 10 10 10 10 10 10 10 10 10 10 9 9 10 10 10 10 10 10 10 10 10 10 10 9 9 8 8
13 13 13 13 14 13 13 13 13 13 14 14 15 15 15 15 15 15 14 14 13 13 13 13 12 12 12 12 13 12 11 8 9 9 9 9 10 11 11 11 11 10 10 10 10 10 10 10 10 10 10 10 10 10 10 9 10 10 10 9 9 9 10 10 9 9 9 8 8
11 11 12 12 13 13 13 12 12 13 13 14 15 15 15 15 15 15 14 14 14 13 13 13 13 13 13 13 13 13 11 8 8 8 9 9 10 10 10 10 10 10 10 10 10 10 10 10 10 10 10 10 10 10 10 10 10 10 10 10 9 9 9 9 9 9 8 8 8
10 10 11 12 13 13 13 12 12 12 13 13 14 14 14 14 14 14 14 14 14 13 13 12 12 13 14 14 14 13 11 9 8 8 9 9 9 10 9 9 10 11 11 10 10 10 10 10 10 10 10 10 10 11 10 10 10 10 10 10 10 10 10 9 9 8 8 8 7
11 12 11 10 13 14 13 13 13 13 12 12 13 13 13 13 13 13 14 14 14 14 13 11 11 12 13 13 13 12 11 11 10 10 10 10 10 10 9 9 10 10 10 9 9 10 10 8 9 9 9 10 10 10 10 10 10 10 10 10 10 10 10 10 9 8 8 8 7
13 13 13 12 13 14 14 14 14 14 13 13 12 12 12 12 12 13 13 14 13 13 12 11 11 11 11 11 11 11 11 11 11 11 11 11 10 10 9 8 9 9 8 8 9 11 11 9 9 8 8 9 9 8 9 9 10 10 10 10 10 10 10 10 10 9 9 8 8
14 14 14 14 14 14 14 14 15 15 14 13 13 12 12 12 12 12 13 13 12 12 12 12 12 10 10 10 10 10 10 10 11 11 11 11 11 10 9 8 8 7 7 7 10 12 13 13 11 9 8 8 8 8 8 8 9 10 10 10 10 10 10 10 11 10 10 9 8
14 14 14 14 14 14 14 14 14 14 14 14 14 13 12 12 11 11 12 12 12 12 12 11 11 10 9 9 10 11 11 10 10 10 11 11 11 11 10 9 8 7 7 8 11 13 14 15 14 12 10 8 8 8 8 8 9 9 9 10 10 10 11 11 11 11 10 9 9
15 15 15 15 15 15 14 14 14 14 15 15 15 14 13 13 12 12 12 12 12 12 11 10 9 8 8 8 10 11 11 10 9 9 9 9 10 10 10 9 8 8 8 10 12 13 14 15 15 14 12 9 8 8 8 8 8 8 8 9 9 10 11 11 11 10 10 9 9
16 16 16 16 15 15 14 14 15 15 15 15 14 14 13 13 13 13 13 13 13 12 11 9 8 7 7 8 9 10 10 10 9 8 8 8 9 10 10 9 9 9 9 11 13 14 15 15 15 15 14 12 9 7 7 7 7 7 7 8 8 9 10 11 10 9 9 9 9
16 16 16 16 15 15 15 15 15 15 14 13 13 13 13 13 13 13 13 13 13 12 11 9 8 8 9 9 9 8 9 9 8 8 8 9 9 10 10 10 9 9 9 11 13 14 15 15 15 15 15 15 11 8 7 7 7 7 7 7 9 10 11 11 11 10 9 8 9
15 15 15 15 15 15 15 15 14 13 12 11 12 13 13 13 14 14 13 13 13 12 10 10 10 10 10 9 8 8 8 8 8 8 8 9 10 10 10 10 11 10 10 10 12 14 15 15 16 16 16 16 12 9 8 8 8 8 8 8 10 11 11 11 11 11 11 10 9
15 15 15 14 14 14 14 14 13 12 11 11 12 12 13 14 13 13 12 12 11 11 11 11 11 11 10 9 8 8 8 8 8 8 8 9 9 10 10 10 11 10 10 10 12 13 14 15 15 15 15 16 12 10 9 8 8 8 8 9 11 12 12 10 10 11 12 12 11
15 14 14 14 13 13 12 12 11 11 11 10 11 12 12 12 11 11 10 10 10 11 11 11 11 11 10 10 9 9 9 9 9 9 9 9 9 9 10 10 10 10 10 10 12 13 14 14 14 14 14 14 11 10 9 8 7 7 8 9 11 12 12 12 12 12 12 12 11
14 14 14 13 13 12 11 11 10 10 10 10 11 11 11 10 10 10 10 9 9 10 11 11 11 10 10 10 9 9 9 8 8 9 9 9 9 9 9 9 8 8 8 10 11 12 12 12 12 12 11 12 10 9 9 9 8 8 9 10 10 11 11 12 13 12 12 12 11
14 13 13 13 12 11 10 10 10 10 11 11 11 11 11 11 11 11 11 10 10 9 9 9 8 8 8 8 8 8 9 8 8 8 8 8 8 9 9 10 9 9 8 9 9 10 10 11 11 10 10 9 9 8 9 10 10 10 11 11 11 11 11 12 12 11 11 11 11
13 13 12 12 11 10 10 11 11 11 11 11 11 11 11 11 12 11 11 10 10 9 8 8 7 7 7 7 7 7 8 8 8 7 7 7 8 8 9 10 11 10 9 9 9 9 10 10 10 10 10 9 8 8 9 9 9 10 11 12 11 11 12 12 11 10 10 9 10
13 12 12 11 10 10 11 11 12 12 12 11 11 12 12 12 11 11 10 10 10 9 9 8 7 7 8 8 8 8 8 8 7 7 7 7 7 8 9 10 11 10 9 9 9 10 10 11 11 11 10 9 9 8 8 8 8 9 10 11 11 11 11 11 10 10 9 9 9
12 12 11 10 10 11 11 11 12 12 12 12 11 11 11 11 10 9 9 9 10 10 9 8 8 8 8 8 8 7 7 6 6 7 7 7 7 8 8 9 10 10 9 8 9 10 11 11 11 11 10 9 9 8 7 7 7 8 9 9 9 10 10 8 8 8 9 10 11
11 11 11 11 11 11 11 12 12 12 12 12 11 11 10 10 9 8 8 8 9 9 9 8 8 8 8 7 6 6 6 6 6 6 6 7 7 7 7 9 10 10 9 8 8 9 10 11 11 12 11 10 9 8 7 7 7 8 8 8 8 9 9 8 7 7 8 10 12
11 11 12 11 11 11 12 12 12 11 11 11 11 11 10 9 8 7 7 6 7 7 7 7 8 7 6 5 4 4 5 5 5 5 5 6 6 6 7 8 10 10 10 9 8 9 10 11 11 11 11 9 9 7 6 6 7 8 8 8 7 7 8 8 7 7 8 9 11
11 11 11 11 11 11 11 12 11 10 10 10 10 10 9 8 7 7 6 5 5 6 6 6 6 5 4 3 3 3 4 4 4 4 4 5 5 6 7 8 9 10 10 9 9 9 9 10 10 11 11 9 8 7 6 6 7 8 9 9 8 7 7 7 7 7 7 8 9
Wind_Direction
177 177 175 172 172 171 169 164 165 168 171 173 175 176 178 180 179 177 175 175 176 177 181 186 179 166 155 151 150 150 150 152 154 153 152 150 149 149 149 150 150 150 148 147 147 148 148 149 144 140 138 139 136 136 138 147 152 151 147 143 143 144 145 144 144 144 143 140 137
178 177 174 170 170 168 166 163 168 174 178 179 178 177 176 177 175 174 173 177 178 179 179 179 167 154 149 149 149 149 150 151 152 152 151 149 149 150 151 153 154 153 152 150 151 151 153 154 150 145 142 143 140 140 143 153 156 153 149 145 144 146 147 145 144 142 141 140 143
176 176 173 170 171 171 170 170 175 179 181 181 178 175 173 173 171 171 173 179 180 178 173 165 154 148 147 149 149 150 150 151 151 151 150 149 150 152 154 155 156 156 155 153 155 156 157 158 154 150 149 152 150 148 148 157 160 155 150 147 147 148 148 144 143 144 145 148 154
176 176 174 174 176 175 174 174 178 180 179 176 173 171 170 171 170 171 174 178 178 175 168 156 149 148 148 149 150 150 150 150 150 149 148 149 152 155 157 158 157 156 156 156 157 158 159 160 156 155 156 157 155 152 153 158 162 157 151 149 150 151 150 147 149 151 153 156 160
179 179 179 179 179 178 176 175 176 176 174 167 167 169 171 173 172 171 172 175 175 169 161 153 148 147 148 148 149 149 149 149 149 148 148 149 153 157 160 161 158 156 155 156 158 160 160 161 157 157 158 159 158 156 156 159 160 157 152 151 156 157 156 153 154 156 158 160 164
181 182 181 181 180 178 176 173 173 171 168 166 170 174 176 175 174 173 173 172 166 157 151 148 145 144 145 148 149 149 149 150 150 148 148 150 154 158 160 159 156 154 153 156 158 161 162 162 156 153 155 155 155 156 157 161 161 159 157 158 164 164 162 159 158 161 165 169 172
181 182 182 181 180 178 174 169 169 168 169 172 176 178 177 175 174 173 171 163 154 150 149 148 146 146 147 150 151 151 152 153 151 150 150 151 155 157 158 156 153 152 153 157 161 164 166 165 158 155 155 155 155 161 166 170 169 166 164 165 167 169 169 165 161 166 174 177 178
182 183 182 181 180 177 173 167 167 169 173 178 180 179 176 172 170 167 163 156 154 154 154 152 151 151 152 154 154 155 155 154 153 152 152 153 155 156 155 152 151 152 155 161 166 169 170 168 162 160 160 161 161 168 175 179 178 175 172 169 168 171 175 171 168 173 180 183 183
184 184 183 181 180 177 174 170 170 173 177 180 179 176 173 169 166 164 161 159 159 158 156 154 155 155 155 156 156 157 157 157 155 155 155 155 156 155 154 152 152 153 158 166 171 172 171 170 169 167 167 169 170 173 177 183 183 181 177 172 171 174 178 179 178 181 185 187 189
183 182 181 179 179 177 174 172 173 176 178 178 175 172 169 167 166 165 163 161 159 158 158 157 157 157 157 157 158 159 159 158 157 157 157 158 158 157 156 156 156 157 160 168 173 174 173 173 174 173 172 174 174 174 176 184 186 185 181 178 177 178 180 184 185 188 191 194 195
182 180 178 177 177 175 173 172 174 176 178 176 172 170 168 168 168 166 163 158 157 159 159 158 158 158 158 159 161 161 162 161 159 159 160 161 160 159 159 159 160 161 164 169 174 176 178 179 179 177 176 177 175 174 177 185 189 188 186 184 183 184 186 188 190 193 196 200 201
182 180 178 175 174 173 173 172 174 177 178 175 171 169 169 169 168 164 159 156 157 158 158 158 158 159 159 160 163 163 163 162 161 161 162 163 162 161 160 161 163 164 166 169 175 179 183 184 182 180 179 178 178 178 181 186 191 192 190 188 189 192 194 194 194 195 198 200 204
181 178 176 173 172 172 172 172 173 176 177 173 169 168 168 167 165 161 158 157 156 155 154 156 158 159 160 162 164 165 165 165 164 164 164 164 162 162 162 164 166 167 168 171 178 182 186 186 185 183 182 181 182 184 185 187 192 194 194 192 195 200 202 201 197 196 197 200 207
178 175 173 171 170 171 172 171 171 173 174 171 168 166 165 162 161 159 157 156 152 149 149 154 159 162 164 165 167 167 168 168 168 167 166 164 163 164 166 168 170 170 171 173 181 186 189 188 188 186 185 183 186 186 188 190 195 198 198 197 200 205 207 206 200 195 195 201 208
175 173 171 169 170 171 172 171 170 170 170 169 167 164 161 157 157 156 154 150 147 146 149 156 163 167 169 170 170 170 170 171 172 170 168 165 166 168 170 172 173 173 174 174 182 190 193 192 190 189 188 187 188 188 189 194 199 203 204 203 205 208 210 207 200 196 196 201 208
174 173 171 169 171 172 172 171 169 169 168 168 166 162 157 153 154 153 151 149 148 151 157 164 168 171 173 174 173 172 172 175 175 173 171 169 170 172 174 175 177 177 177 177 182 190 196 197 194 193 191 190 190 190 191 196 202 206 209 210 211 212 211 207 201 197 198 201 208
174 173 172 172 173 173 172 171 169 168 167 166 162 158 155 152 153 155 155 155 155 160 166 171 172 172 173 174 174 174 175 178 178 177 175 173 174 176 178 180 182 182 182 181 184 189 194 197 197 197 196 194 194 193 194 197 202 208 211 214 215 215 213 208 202 199 199 202 210
175 174 173 174 174 174 172 171 168 166 164 162 159 156 154 154 156 160 162 162 162 165 169 173 174 173 172 172 174 176 179 181 182 181 179 177 178 179 182 185 186 186 186 187 188 191 193 195 197 198 199 199 198 197 197 199 204 208 212 215 216 217 215 210 204 201 200 203 210
175 175 175 176 176 174 172 170 167 164 162 160 158 157 158 159 162 164 166 168 167 168 170 172 173 173 172 172 174 179 184 186 185 183 181 180 180 183 186 189 189 190 191 192 193 194 194 194 195 197 200 202 201 201 201 202 206 210 213 215 217 216 214 210 205 202 202 204 209
176 176 176 177 175 173 171 169 166 163 161 160 160 161 163 165 166 167 168 171 171 170 170 170 171 171 173 174 177 183 188 190 186 184 182 182 184 187 190 191 191 192 194 196 197 197 197 196 196 198 200 202 203 203 204 206 209 212 214 215 216 216 213 210 205 203 203 206 208
177 176 175 174 172 171 170 168 165 163 162 163 165 166 167 169 170 171 170 169 169 170 171 171 171 172 174 177 181 186 189 190 187 184 184 185 189 192 193 193 193 194 196 199 200 201 201 200 199 200 201 202 204 204 205 207 210 213 214 216 216 215 212 208 204 203 203 206 208
174 173 172 172 172 171 170 168 166 165 166 167 168 169 170 172 174 172 169 165 166 169 172 173 174 175 177 180 185 187 188 187 186 186 187 189 193 195 195 195 195 196 198 200 202 203 203 203 203 203 203 204 206 206 207 208 211 213 214 216 216 214 211 207 205 204 204 206 208
171 170 172 173 174 172 170 168 167 167 168 169 171 172 174 176 175 171 166 163 166 170 173 175 177 179 181 184 186 186 185 183 186 190 192 194 196 197 197 197 198 200 201 203 203 203 203 204 205 205 206 208 210 209 209 209 211 213 214 215 214 212 209 207 205 205 206 207 208
171 172 174 176 177 174 171 169 168 168 170 172 175 176 177 178 175 169 166 165 168 171 174 175 179 182 184 187 187 186 184 183 187 192 196 199 200 200 199 200 203 205 205 204 202 201 200 201 203 205 208 211 213 212 210 209 212 214 215 214 213 211 209 207 206 206 207 207 208
174 175 177 179 179 177 174 173 171 171 172 174 177 179 179 178 174 170 168 167 169 171 174 177 180 183 185 188 188 187 187 187 190 194 197 201 203 203 203 205 208 210 209 208 203 201 200 200 200 203 206 210 212 212 211 211 214 215 215 213 212 210 209 207 207 208 209 209 208
177 178 180 181 181 180 178 177 175 173 173 173 176 179 180 179 175 172 170 169 170 172 175 178 180 182 184 188 188 190 191 193 195 197 199 201 204 205 207 210 213 214 215 212 206 204 204 204 203 202 202 205 207 209 211 213 215 216 216 215 213 211 210 209 209 208 208 209 208
179 182 183 182 183 183 183 181 178 175 174 173 176 178 180 179 177 174 172 171 171 173 176 180 180 181 183 188 190 192 195 197 199 201 203 204 205 207 210 215 217 218 217 215 210 207 207 208 207 205 203 205 207 209 212 214 214 215 216 217 216 215 214 213 211 209 206 206 206
181 183 185 184 185 186 185 182 180 179 178 177 177 178 179 178 177 176 175 174 173 174 177 180 180 181 184 189 192 195 197 198 200 203 206 209 210 212 214 219 220 221 219 216 213 211 210 211 210 207 205 204 208 211 214 216 213 213 214 217 218 218 217 217 214 210 205 202 202
183 184 185 186 187 187 185 184 184 184 182 179 178 177 177 177 178 178 177 175 175 176 179 180 179 181 186 193 195 197 198 200 201 204 207 212 217 219 222 225 228 227 223 217 216 215 214 214 212 209 206 205 208 212 215 217 214 211 211 214 216 217 218 218 215 210 204 200 200
185 185 186 187 187 187 187 187 188 186 183 179 177 175 175 177 179 179 179 178 179 180 181 178 178 183 190 193 193 195 198 201 203 205 209 214 221 225 228 230 233 233 228 220 219 219 218 217 215 212 208 205 208 212 216 216 213 211 210 212 214 216 217 217 214 209 204 199 199
188 188 188 188 187 188 188 189 189 186 182 177 175 175 177 179 181 181 181 181 182 182 180 178 181 186 190 191 191 194 198 201 204 207 212 217 223 229 233 236 239 240 235 226 223 223 222 221 219 215 210 205 208 212 216 215 213 212 212 213 214 215 215 215 212 207 203 199 199
189 189 189 189 189 189 189 188 187 184 180 176 175 177 180 182 182 181 181 182 181 180 180 181 185 187 189 189 192 196 200 203 206 209 213 219 226 232 238 242 244 244 241 232 228 227 226 225 223 218 213 207 209 213 216 215 214 215 217 219 218 216 213 211 209 207 203 200 199
188 189 190 191 190 189 187 185 183 181 178 175 177 179 181 180 179 178 178 180 180 181 182 185 186 187 188 190 194 199 204 207 209 212 215 220 228 235 241 246 248 247 242 235 232 230 229 229 227 223 217 210 212 216 218 217 218 220 222 223 221 218 214 211 210 207 203 200 199
187 188 190 191 190 187 184 180 178 176 175 175 178 178 178 175 175 175 177 180 183 184 185 186 187 188 189 191 195 199 204 208 211 214 217 222 228 235 242 247 250 247 241 235 233 232 232 231 230 226 220 213 217 220 221 220 222 224 226 227 223 219 214 212 211 208 204 200 198
185 187 189 190 188 184 179 175 174 174 174 176 177 177 176 174 176 178 179 181 183 185 185 185 185 186 189 192 196 201 205 209 212 215 218 221 227 235 242 249 254 252 245 237 235 233 232 231 229 225 219 214 219 221 222 221 224 226 227 228 224 219 214 212 212 210 206 201 199
183 185 186 187 184 179 175 174 173 174 176 177 176 176 177 178 180 180 180 178 179 180 181 179 179 182 187 193 199 203 207 209 212 215 219 221 226 234 242 251 257 257 250 241 236 233 231 229 225 220 217 217 222 222 220 220 224 227 228 229 226 220 215 212 212 211 208 204 202
182 183 183 182 179 176 174 173 175 177 178 178 177 178 179 181 182 181 177 173 175 177 178 177 180 185 191 197 202 206 208 209 212 216 221 223 227 235 244 254 260 261 256 244 237 233 231 229 225 220 217 223 226 224 220 220 224 227 229 230 228 223 217 213 212 211 210 208 206
181 181 180 179 177 176 175 175 178 180 181 180 179 180 181 182 181 177 172 170 174 176 177 179 185 192 197 200 203 206 208 209 213 219 225 228 231 238 246 256 262 263 260 249 238 233 231 231 227 222 220 228 229 226 220 219 224 226 228 229 229 224 218 213 210 210 211 211 210
179 179 179 178 178 177 177 179 181 182 181 180 180 181 182 183 179 172 168 171 174 175 177 181 190 196 199 200 202 206 210 213 216 222 229 236 238 241 247 255 261 264 263 255 243 236 234 234 230 224 221 228 230 226 221 219 223 226 228 229 230 225 219 213 210 211 213 214 214
176 177 178 179 179 179 180 182 183 183 181 180 181 181 181 180 171 163 161 167 170 173 176 184 190 192 191 189 196 208 218 223 223 226 233 243 247 247 248 253 260 264 265 261 252 245 240 238 233 226 222 227 227 224 220 219 223 225 227 228 228 226 222 215 212 213 216 218 218
174 176 178 179 179 180 181 183 183 182 181 181 181 179 174 167 158 154 156 162 166 170 175 182 181 175 168 168 188 210 228 241 241 240 242 250 255 253 251 254 259 263 266 265 260 254 248 244 238 229 223 225 223 220 216 217 222 225 227 228 226 226 224 219 215 215 217 220 220